ECMWFFLT1_850_thetae_132.txt.gz
Theta_e
349 347 347 346 346 345 346 348 348 350 351 350 347 347 348 350 349 346 343 343 343 343 342 342 342 342 343 343 343 344 346 346 347 347 348 350 352 353 353 352 351 351 351 351 351 349 346 345 345 345 343 340 340 341 341 342 341 341 341 340 342 343 343
350 349 349 348 347 346 346 348 349 349 350 350 347 346 348 350 347 343 341 341 342 343 342 341 340 341 342 342 341 342 344 345 346 347 348 349 348 350 353 353 353 351 349 351 352 349 344 342 341 341 341 341 342 342 341 342 342 341 343 342 343 343 341
353 352 351 349 348 347 346 348 350 349 350 350 348 347 348 347 344 341 341 342 341 342 343 341 340 340 342 342 341 341 341 343 345 345 347 349 349 351 352 352 353 353 351 351 351 350 347 344 342 341 341 341 343 343 341 342 342 341 343 342 343 344 341
353 352 351 350 348 348 348 350 350 349 349 349 348 346 345 342 340 341 341 341 342 342 342 343 342 341 341 341 341 342 340 341 344 346 350 353 353 353 354 352 352 353 353 353 351 352 352 348 342 341 341 341 343 343 342 342 342 341 341 342 342 343 343
353 353 352 351 348 348 349 350 350 349 348 349 347 345 344 343 343 343 342 342 344 344 343 343 345 344 342 341 343 344 342 341 342 345 351 354 354 353 353 352 354 354 353 353 353 351 350 347 345 343 341 341 341 342 342 341 342 341 341 342 343 344 347
353 354 353 351 348 348 348 349 350 349 348 349 347 345 345 347 347 347 346 345 346 347 345 344 347 347 343 343 346 347 344 341 340 343 348 352 352 353 353 352 354 355 353 353 354 353 349 348 350 347 343 345 345 346 347 344 343 344 342 343 344 345 350
354 355 355 352 349 348 348 347 348 349 348 348 348 346 345 348 349 349 349 348 348 349 348 346 347 348 345 345 347 347 344 342 341 341 345 350 351 352 353 353 353 355 354 354 354 354 352 350 351 350 347 350 351 352 353 348 345 346 345 344 344 343 347
355 355 355 353 351 348 347 346 347 347 348 349 349 347 346 348 349 348 349 349 347 346 347 347 348 347 344 344 346 345 343 343 344 341 342 349 352 352 352 352 353 354 354 355 353 353 353 352 352 351 350 353 354 352 353 349 344 347 349 348 345 344 348
355 355 355 354 352 350 348 347 346 346 347 349 349 347 345 347 349 348 350 350 345 341 343 347 349 345 341 343 343 342 343 344 345 342 340 346 351 352 352 352 353 353 352 354 354 352 352 352 353 351 347 351 352 349 349 347 344 348 350 349 347 346 350
355 354 355 355 353 352 350 347 347 348 348 348 348 348 347 348 347 349 351 349 344 339 340 345 347 343 341 342 342 343 345 345 345 345 343 344 348 350 352 352 353 352 351 352 354 354 353 352 354 351 344 346 348 345 346 348 347 349 351 352 350 349 349
354 353 354 354 352 350 349 346 346 347 347 345 344 345 347 348 347 347 347 345 341 340 341 343 344 341 341 342 342 343 346 347 347 347 346 345 346 347 348 349 350 351 351 351 352 354 355 353 353 352 346 346 348 346 346 348 348 350 354 356 354 352 353
353 352 352 352 352 351 349 347 346 347 346 346 344 343 345 345 344 344 343 341 340 341 341 342 342 342 342 342 342 342 345 347 348 349 347 346 346 346 347 346 347 348 349 349 350 352 354 354 354 353 348 347 351 352 350 349 350 350 351 355 356 354 354
351 352 351 351 352 351 351 349 348 347 346 346 347 345 344 343 343 343 342 341 341 341 341 342 342 341 341 342 342 342 343 344 347 348 349 349 347 347 347 346 345 346 346 347 348 350 352 353 354 355 352 350 352 355 354 351 351 350 349 352 356 355 353
349 351 350 351 351 351 352 352 351 349 347 347 346 344 344 344 344 344 344 344 342 341 341 342 342 343 342 342 342 342 342 343 344 346 348 349 350 349 349 349 347 347 347 347 348 348 349 350 351 353 353 353 352 354 354 353 352 351 349 349 353 355 353
349 350 350 350 351 351 352 353 352 352 351 349 346 345 347 348 346 344 344 344 343 342 341 342 342 343 343 343 343 343 342 343 344 345 347 348 348 347 347 348 349 349 349 349 349 349 348 348 350 351 352 352 353 352 353 353 354 353 351 350 351 353 354
349 350 350 350 350 351 352 352 352 352 352 351 349 349 350 351 349 346 345 344 342 341 340 341 342 343 343 344 344 343 342 342 342 343 345 347 347 346 345 346 348 350 350 349 349 350 350 349 350 351 351 351 352 351 351 352 353 353 350 350 351 351 353
349 349 349 349 349 350 350 350 351 351 351 351 351 351 351 350 350 349 347 345 343 341 340 341 342 342 342 342 343 343 342 341 341 343 344 344 346 347 347 347 348 348 347 345 345 347 347 345 346 348 349 350 350 349 349 350 351 350 348 347 348 348 348
349 349 348 347 347 348 348 348 349 350 350 350 351 351 350 350 350 349 347 346 344 342 341 341 341 341 341 341 342 343 341 340 343 345 345 344 345 346 347 348 348 348 347 346 346 345 343 342 343 343 345 348 349 348 349 348 347 346 344 345 346 346 345
348 347 346 346 346 346 346 346 347 347 348 349 349 349 349 349 349 349 348 347 347 345 343 343 343 342 342 340 340 340 340 339 341 343 343 342 343 345 346 348 349 350 350 350 350 349 346 344 341 337 339 344 348 348 347 344 341 340 340 342 344 345 345
347 346 345 345 345 344 344 344 344 345 346 347 347 347 347 348 348 349 349 349 349 349 348 348 348 347 345 344 343 342 341 340 340 341 341 340 341 344 345 347 349 351 351 351 351 351 350 346 342 339 341 344 347 348 344 341 340 340 339 340 341 342 344
345 344 344 344 343 342 343 343 344 344 344 344 345 345 345 346 347 347 348 348 349 349 350 350 349 349 348 348 347 346 345 344 343 343 343 342 342 343 344 346 348 348 349 350 349 349 350 348 345 345 347 348 349 349 346 344 345 344 343 343 343 343 344
343 343 342 343 342 341 343 343 343 343 343 343 343 343 343 344 344 345 347 347 347 348 349 350 350 349 350 349 349 348 348 348 348 347 347 347 345 344 345 346 347 348 349 350 347 347 349 349 348 348 349 350 351 351 349 348 350 350 349 348 347 347 346
343 341 341 341 340 341 341 341 341 342 342 342 342 342 342 342 342 343 345 345 346 347 347 348 347 347 348 348 348 349 349 349 349 349 349 348 348 347 348 348 348 349 349 349 348 348 349 350 350 350 350 351 352 351 350 350 352 352 351 351 350 349 349
341 340 339 339 340 340 340 339 340 340 341 341 341 341 341 341 341 342 343 343 344 344 345 345 345 344 345 346 347 347 348 348 347 348 348 348 348 347 348 348 348 348 348 348 348 349 349 349 349 350 350 350 350 351 351 351 351 351 350 350 350 349 349
339 338 338 338 339 338 338 338 338 338 339 339 339 340 340 340 340 340 340 340 341 341 341 342 343 342 343 343 343 344 343 342 342 343 344 345 345 345 345 345 345 345 345 346 348 348 348 348 348 348 348 347 348 349 349 349 349 349 349 350 350 350 350
338 337 337 337 337 336 336 335 335 336 336 337 337 337 338 338 339 338 338 338 338 339 340 340 340 340 339 339 339 340 340 340 340 341 342 341 341 341 342 342 342 342 342 343 344 345 346 346 346 346 345 345 346 347 347 347 347 346 347 348 349 349 349
337 336 336 335 334 334 333 333 333 333 334 334 334 334 334 335 335 335 336 336 337 339 339 339 338 336 334 334 334 335 338 340 340 340 340 339 338 338 338 338 337 336 337 339 340 341 341 342 342 341 342 342 343 343 343 343 343 343 343 344 345 346 346
335 335 334 332 332 332 331 331 332 331 331 331 331 331 330 329 329 331 334 335 336 337 337 336 334 329 326 328 328 329 332 333 334 336 337 338 338 335 333 333 333 332 332 333 333 333 334 336 337 338 339 339 339 338 338 337 337 337 337 338 339 341 341
333 332 330 329 329 330 330 329 329 329 330 330 330 330 327 324 324 328 330 330 332 333 333 331 327 322 321 326 329 331 332 331 332 335 336 337 337 334 332 331 330 329 328 326 324 324 325 326 328 330 330 331 331 331 331 330 329 329 330 330 332 333 333
332 330 328 328 329 330 329 329 329 329 329 329 328 327 325 323 323 324 325 325 326 328 328 327 324 321 322 326 330 332 332 331 332 332 332 332 331 331 329 327 324 322 322 320 319 320 320 320 322 323 323 325 327 327 327 328 327 326 326 326 326 327 327
331 330 329 329 329 329 329 329 329 328 328 328 327 327 325 324 323 322 322 322 322 323 326 328 328 327 327 328 329 330 330 330 328 327 327 327 327 326 326 324 321 320 318 317 317 318 318 320 321 320 319 321 322 323 324 326 327 326 325 325 325 325 324
330 329 329 329 328 328 327 327 327 326 326 326 326 326 326 324 323 322 324 325 325 326 328 329 329 329 329 329 329 328 328 328 327 326 326 326 325 324 324 321 319 318 318 318 319 319 321 324 326 324 323 323 324 325 326 327 327 326 325 325 324 323 323
328 327 327 327 326 324 323 322 323 323 322 321 321 323 324 324 322 321 324 326 327 327 327 328 327 327 327 327 327 327 327 326 325 324 323 322 321 321 319 318 316 315 316 317 318 318 322 326 327 327 327 327 327 326 326 326 326 324 323 322 321 320 319
325 324 324 325 324 322 320 318 319 318 317 316 317 318 319 320 321 321 323 326 327 326 326 327 326 326 326 326 326 326 325 323 322 322 322 320 319 319 318 317 316 315 315 315 316 318 321 324 326 326 327 327 327 326 326 325 322 318 316 316 315 314 313
325 323 322 323 322 320 317 315 314 314 314 314 315 316 316 318 321 322 323 324 325 325 325 326 326 326 326 326 326 326 324 323 323 324 322 320 318 318 318 317 317 316 315 315 315 317 318 319 321 322 323 324 323 324 325 323 318 313 313 313 312 312 312
323 322 321 320 318 316 315 313 312 312 311 312 315 317 319 320 322 323 323 323 323 324 324 324 325 325 325 325 325 325 324 324 324 323 322 321 320 319 318 317 317 317 317 316 316 316 316 316 317 317 317 317 317 318 319 318 315 313 313 313 311 312 311
321 321 321 319 317 317 316 314 313 313 312 313 317 319 320 321 321 322 322 323 323 323 323 323 324 324 324 324 324 324 324 324 324 323 323 322 322 321 319 319 318 317 317 317 317 316 316 316 316 316 315 315 314 314 314 313 313 312 312 311 311 311 310
321 321 321 319 319 319 316 313 314 315 316 317 318 318 319 319 320 320 321 322 322 323 323 323 323 323 323 323 323 323 323 323 323 323 323 322 322 321 321 320 319 318 318 317 316 316 316 316 316 315 315 314 314 313 312 312 312 312 311 311 311 310 310

ECMWFFLT1_850_thetae_135.txt.gz
Theta_e
346 346 344 344 344 344 344 344 345 345 347 348 349 350 350 349 349 350 352 354 350 342 341 346 347 346 345 346 347 348 347 348 349 350 351 352 355 355 354 354 354 354 355 354 354 355 354 353 352 353 352 347 345 344 341 342 341 343 343 341 347 350 349
346 346 345 344 344 344 344 344 345 346 347 348 349 349 349 349 349 350 352 354 351 344 340 344 346 346 346 346 346 346 347 349 350 351 353 353 352 353 354 355 355 354 354 355 355 355 353 351 350 351 350 347 346 343 341 343 341 342 346 342 342 346 346
347 347 346 346 346 345 344 345 345 346 347 349 349 348 348 349 349 351 352 353 353 348 344 344 344 345 347 347 345 344 345 350 351 350 353 354 352 353 354 354 355 354 354 355 355 354 352 349 348 346 346 347 349 345 341 343 342 341 344 343 342 345 343
347 347 346 346 346 346 345 345 345 347 347 348 348 347 347 348 348 350 351 351 352 350 349 347 345 347 349 349 348 347 344 348 353 354 355 355 354 354 354 353 353 354 355 354 354 354 354 352 348 343 341 344 349 347 342 343 344 342 341 341 345 348 345
347 347 346 346 346 346 345 345 345 346 346 347 347 346 346 346 347 349 350 349 349 349 350 349 347 348 349 350 351 351 349 349 352 355 355 355 355 355 355 354 353 353 355 354 354 354 353 353 352 348 342 341 345 348 346 344 344 343 341 340 345 350 350
350 348 348 347 347 346 346 345 345 345 346 345 346 346 345 345 346 347 348 347 347 348 350 350 349 349 349 349 350 352 353 351 350 352 355 357 356 355 355 355 354 353 353 353 354 353 351 351 354 353 348 345 348 351 351 349 348 349 346 341 343 349 353
352 352 350 348 347 345 345 345 345 345 345 345 346 346 345 344 345 346 346 347 347 347 349 349 348 349 349 350 349 350 352 352 350 351 354 356 356 355 355 355 354 354 354 353 354 354 353 352 354 355 353 352 352 353 355 353 351 353 350 343 343 345 349
354 353 352 351 351 347 345 346 345 345 345 345 346 346 345 345 344 345 346 347 347 346 348 348 347 349 349 349 350 350 350 350 351 351 353 355 355 355 356 355 355 355 354 354 354 354 355 354 354 355 354 355 355 354 357 355 350 352 354 351 347 345 348
353 352 353 353 351 348 346 347 347 346 346 345 346 346 345 345 344 345 346 347 348 347 347 347 347 348 350 350 350 350 349 349 350 351 351 353 354 354 354 355 355 354 355 355 354 354 355 354 354 355 354 355 356 354 356 354 349 352 357 354 349 348 351
354 354 355 355 352 348 347 348 349 347 346 345 346 347 347 345 344 345 346 347 348 348 348 347 347 347 349 351 350 349 349 349 348 349 350 351 352 353 353 353 354 354 355 355 354 354 354 354 355 356 352 353 355 351 349 350 349 352 356 354 351 349 349
356 357 357 356 354 350 348 351 351 348 346 346 347 348 349 347 345 344 346 348 350 350 349 348 347 349 350 351 351 349 349 349 347 347 347 347 348 350 351 352 352 353 353 353 352 352 353 353 355 356 354 353 355 352 348 348 349 351 354 356 355 353 352
356 357 356 357 357 355 353 352 350 349 348 348 350 352 352 349 347 347 347 348 351 354 353 350 348 350 350 350 351 350 349 349 347 346 346 345 345 345 347 349 350 352 352 352 352 352 352 353 354 356 356 355 356 356 352 349 351 352 351 354 356 355 356
356 356 355 356 357 357 356 352 349 348 349 351 353 355 355 353 352 351 351 352 355 358 359 355 352 350 347 347 350 350 350 349 348 347 346 344 344 344 344 345 347 348 349 349 350 351 352 352 353 354 356 356 356 357 355 353 355 353 347 350 354 356 357
355 355 354 355 355 356 357 354 351 348 347 348 349 351 354 356 356 356 356 357 358 360 359 357 356 354 348 347 351 350 348 350 350 348 347 345 344 344 344 344 344 345 346 346 347 349 350 351 352 352 354 355 354 355 356 355 356 354 348 348 353 354 354
354 354 354 354 354 354 355 355 354 352 349 347 345 345 348 352 354 356 357 358 357 357 358 356 355 353 348 350 354 352 348 348 350 349 349 348 346 346 346 345 345 344 345 345 345 346 347 348 350 351 352 353 353 353 354 354 355 355 353 352 352 349 348
353 353 353 354 354 354 354 354 355 355 354 352 349 346 344 345 347 349 352 353 354 355 356 354 351 349 347 349 354 353 348 348 349 347 347 349 349 349 348 347 346 346 346 346 345 346 347 347 347 348 350 351 352 352 353 353 353 352 351 352 351 348 346
352 353 353 354 354 354 354 354 354 354 355 355 353 350 346 345 346 346 347 350 352 354 353 351 350 351 349 349 354 355 351 349 351 348 345 347 349 350 351 350 349 349 349 349 349 348 349 349 348 348 349 350 351 351 352 352 351 350 349 350 350 347 345
352 352 353 353 354 354 354 354 354 354 354 354 354 353 351 350 350 349 349 350 352 353 351 347 347 351 351 351 354 357 354 351 352 350 346 345 346 348 350 351 351 350 350 352 353 352 351 351 351 350 349 349 349 349 349 349 349 349 349 350 350 348 346
352 352 352 351 352 352 353 353 354 354 354 354 354 354 353 353 353 352 352 352 352 352 351 347 345 348 350 351 354 355 353 351 350 348 347 346 348 349 349 348 348 348 347 349 350 351 351 352 351 350 349 348 348 347 347 347 347 347 347 348 349 348 345
350 350 350 350 350 350 351 351 351 351 352 352 352 353 352 352 353 353 354 354 353 352 352 351 349 347 344 346 351 352 352 352 351 349 349 350 350 350 348 346 347 347 347 347 346 347 348 350 352 352 350 348 348 349 348 348 347 347 346 346 345 343 341
349 349 348 347 348 348 348 348 349 349 350 350 350 350 350 350 351 352 353 353 353 353 353 352 352 350 346 346 350 351 351 352 351 351 352 351 350 349 347 347 348 347 349 349 348 348 348 348 352 353 351 349 349 351 350 348 347 346 344 343 342 339 337
348 348 347 346 345 346 346 346 346 347 347 347 347 347 347 347 348 348 349 350 351 352 353 353 353 352 351 351 351 351 350 350 349 349 349 349 348 346 346 347 346 346 347 347 348 351 351 350 352 354 353 352 353 353 349 344 344 345 342 342 343 342 341
347 346 345 344 344 344 345 345 345 345 344 344 344 345 345 345 345 345 346 347 348 350 351 352 352 352 353 352 351 350 350 349 349 348 347 346 346 346 347 347 346 345 344 344 345 349 351 352 354 353 352 352 353 352 347 343 343 344 344 345 348 348 348
344 344 344 343 343 343 343 344 344 344 343 343 343 343 344 344 344 344 345 345 346 347 348 348 349 350 351 351 350 351 350 350 350 349 348 348 348 348 349 349 347 345 344 344 345 347 348 351 353 352 351 351 351 350 346 344 345 346 347 349 351 352 352
342 342 342 343 343 342 342 342 342 342 342 342 342 342 343 343 343 343 344 344 345 346 346 346 347 348 348 349 349 349 349 350 349 348 348 348 349 349 350 349 347 346 346 347 347 348 349 350 351 351 350 350 350 349 347 346 347 348 349 351 351 351 351
341 341 341 341 341 341 341 340 340 341 341 341 341 341 341 342 342 342 343 343 344 344 344 344 345 345 345 346 346 347 347 348 348 348 347 348 348 348 348 348 347 347 348 348 348 349 349 349 349 350 350 349 349 349 348 348 349 349 349 349 349 349 349
339 340 339 338 338 338 338 338 339 339 339 339 339 339 340 340 341 342 342 342 342 342 342 342 343 343 343 343 344 344 344 344 344 344 345 345 345 345 345 346 346 346 346 347 346 347 347 346 346 348 349 349 348 348 347 347 348 347 346 346 346 347 347
337 337 336 336 336 336 336 336 336 335 335 335 336 336 338 339 339 341 342 341 340 340 340 340 340 340 340 341 342 342 343 343 342 342 342 343 342 342 342 342 343 343 344 344 343 344 344 344 344 345 346 345 345 344 345 345 344 343 342 342 342 343 344
336 335 335 334 334 334 333 333 333 332 332 332 333 334 335 336 336 338 339 338 338 338 337 336 337 337 337 338 338 339 339 339 339 339 339 339 338 336 336 336 338 338 339 339 338 339 339 340 340 340 341 340 339 338 338 337 336 335 335 334 335 336 337
334 333 333 332 332 332 332 331 331 330 330 330 331 332 333 333 334 335 335 335 335 335 331 330 331 331 330 330 333 335 336 337 337 336 335 333 332 331 330 330 330 330 330 330 330 330 331 331 331 331 331 331 330 330 329 328 327 327 327 328 328 328 328
333 332 332 331 330 330 331 330 329 329 330 330 329 330 331 332 332 333 333 332 333 332 329 326 326 325 324 325 328 330 331 333 333 333 332 330 328 326 325 326 326 324 325 325 323 322 323 324 323 322 322 322 321 322 322 323 322 322 322 323 324 324 324
333 332 331 330 329 329 330 329 328 327 327 328 328 328 328 329 329 330 331 331 331 331 330 330 329 327 326 328 329 328 328 328 328 328 328 327 325 323 323 325 326 326 328 328 325 323 325 325 322 319 319 320 319 320 320 320 320 320 320 321 322 323 322
332 331 330 330 329 329 328 328 327 326 326 326 327 327 327 327 327 327 328 329 329 329 330 331 331 329 329 329 329 328 328 328 326 326 325 325 324 322 321 320 320 323 327 328 327 327 329 329 326 325 325 325 324 325 324 323 324 324 321 319 319 318 317
330 330 329 328 328 327 327 327 326 326 326 326 326 326 326 326 326 326 326 327 328 328 329 330 329 329 328 327 327 327 327 327 327 326 326 326 325 323 322 321 320 319 320 322 323 325 328 330 329 329 328 327 327 327 327 326 326 323 318 316 314 313 313
330 328 327 326 326 325 325 325 325 324 324 324 324 325 325 324 324 324 325 326 327 328 329 328 328 328 327 326 326 326 326 326 327 326 326 327 324 321 321 322 320 316 315 316 317 321 325 328 328 328 327 327 327 327 326 326 324 319 315 314 313 312 312
327 327 326 325 324 320 319 320 322 322 322 323 323 323 324 324 324 324 324 325 325 327 328 328 327 327 327 326 326 325 325 325 325 324 324 325 323 320 318 318 317 315 315 316 315 318 322 325 326 326 325 326 326 325 326 326 322 316 314 313 312 312 311
325 325 324 323 321 318 315 317 319 319 319 320 322 322 322 323 323 324 324 324 324 325 327 327 327 327 327 326 326 325 324 324 324 324 324 324 322 321 318 317 317 317 316 316 315 317 319 321 322 322 321 320 321 322 323 323 318 314 312 312 311 311 310
324 324 322 320 318 317 316 317 317 315 314 316 319 321 321 321 321 322 323 324 325 325 325 326 326 326 325 326 326 325 325 325 325 325 324 324 323 322 321 319 318 318 317 317 317 317 317 317 317 317 316 316 316 316 317 316 314 312 311 311 310 310 310

ECMWFFLT1_850_thetae_138.txt.gz
Theta_e
347 345 345 344 344 344 345 345 346 347 347 348 349 350 350 351 353 355 357 353 348 348 349 347 346 347 348 348 349 347 347 347 348 349 348 347 347 346 345 348 349 350 351 351 350 351 351 351 352 353 349 344 344 344 343 343 342 342 343 344 347 346 349
347 345 344 344 344 344 345 346 345 346 348 348 349 351 351 350 352 355 356 354 348 346 349 348 345 346 347 348 349 348 347 348 350 349 348 347 349 348 347 351 352 351 353 354 353 352 353 352 351 353 351 345 343 342 341 342 340 341 342 340 342 345 346
347 346 344 344 344 344 345 345 345 346 348 349 349 351 350 350 352 354 355 354 349 344 347 349 346 346 346 347 348 348 349 349 349 349 349 349 350 350 351 353 351 350 353 355 353 352 353 352 348 349 349 347 347 344 340 342 340 339 342 340 341 343 343
348 346 344 344 344 344 345 345 346 346 348 349 349 350 350 349 351 353 354 354 350 344 344 348 348 346 346 347 346 346 348 349 349 350 351 351 350 351 353 354 353 352 353 354 352 352 353 352 346 344 344 346 351 349 340 341 342 338 340 340 341 344 342
349 346 345 345 344 344 345 345 345 346 347 348 349 349 350 349 351 352 354 356 353 347 344 347 350 348 346 346 346 345 345 347 349 352 354 353 352 353 354 353 353 354 354 353 353 353 353 352 346 342 340 342 350 350 342 341 344 341 339 339 341 345 346
349 347 346 346 345 344 345 345 345 345 346 349 349 349 350 350 351 352 353 355 354 352 350 351 352 350 348 347 347 347 344 344 348 350 353 355 353 354 355 354 353 353 354 355 353 352 351 351 351 348 342 339 346 351 347 344 346 345 341 339 340 344 350
348 347 346 346 346 344 345 346 345 345 346 349 349 348 348 349 349 350 351 352 353 353 353 353 353 351 351 353 352 351 345 341 346 349 352 356 355 354 355 355 354 353 354 354 353 354 350 349 353 354 349 345 346 351 352 348 349 351 348 342 341 341 346
350 348 347 347 347 345 346 346 345 345 346 347 347 347 347 348 347 348 349 350 350 351 351 351 351 350 351 353 353 353 349 345 345 347 351 356 355 354 355 355 355 354 353 353 354 355 354 350 352 355 354 351 349 350 353 352 350 352 352 348 344 341 344
350 349 347 347 347 346 346 346 345 345 345 346 346 347 346 346 346 346 347 348 348 349 349 349 349 348 349 351 350 351 352 351 350 350 352 355 355 355 356 355 355 354 354 354 353 354 355 353 353 354 353 353 352 351 352 352 349 349 352 352 348 345 346
350 349 349 348 347 346 346 346 346 345 345 345 345 346 346 345 345 345 345 347 347 347 348 348 348 348 349 350 350 349 351 352 353 353 353 355 355 355 355 355 354 354 354 354 353 353 354 353 354 354 352 351 353 352 350 350 348 347 351 352 351 350 350
350 351 350 348 347 347 346 346 346 344 344 345 345 346 346 345 345 344 345 347 347 347 348 347 347 348 348 349 351 351 351 351 352 353 352 353 354 354 354 354 354 354 354 355 354 353 354 353 353 354 352 350 351 350 347 347 347 346 350 352 353 352 351
352 352 350 350 350 349 347 346 345 345 345 345 346 346 346 345 345 345 344 346 347 347 348 347 347 347 348 349 350 350 350 350 350 350 351 351 351 352 352 353 353 353 354 354 354 353 353 354 354 354 352 350 351 350 346 345 347 347 349 352 354 352 350
351 352 351 352 352 350 349 346 345 345 344 345 346 346 346 346 345 345 345 346 347 347 347 347 347 347 347 349 350 350 350 350 349 349 349 349 349 349 349 350 351 352 353 353 353 352 353 353 354 354 352 350 352 353 351 348 348 348 347 349 352 352 350
352 353 354 354 353 352 350 347 345 345 345 346 347 346 347 346 345 345 345 346 347 348 348 347 347 348 348 349 351 351 349 350 350 348 348 347 347 347 346 347 347 349 350 351 352 352 352 351 352 354 353 351 350 353 353 352 351 349 347 346 348 349 349
348 350 353 354 355 356 354 351 348 348 348 347 346 347 349 349 348 347 346 347 348 349 350 348 347 348 349 350 351 351 350 350 350 349 348 347 346 345 345 345 345 345 346 346 348 351 351 350 350 352 353 352 351 351 351 352 352 351 349 347 346 346 347
346 346 350 353 356 359 359 356 353 351 350 349 347 348 351 352 351 350 349 349 350 350 352 353 351 350 350 351 351 351 351 351 350 350 348 347 346 345 344 344 344 344 344 345 346 347 348 348 349 350 351 351 352 352 352 352 353 353 352 351 349 348 348
346 346 349 352 354 355 356 356 354 352 351 351 350 351 353 354 353 352 351 352 353 353 355 358 358 354 351 353 354 354 353 352 351 351 349 348 348 346 344 344 345 344 344 345 346 346 346 346 346 348 349 350 351 352 353 352 352 352 352 353 352 350 351
347 346 347 349 351 353 353 353 354 353 353 353 354 353 353 353 353 353 353 354 355 355 356 359 359 357 353 353 355 356 355 353 353 352 351 350 349 348 346 345 346 346 345 345 346 346 346 346 346 347 347 348 349 351 352 351 351 351 352 353 351 349 351
350 348 347 348 350 351 351 350 352 354 355 355 355 354 353 352 352 352 352 351 352 353 354 356 358 357 354 351 353 357 356 354 352 351 351 349 347 348 348 346 345 346 346 346 347 347 347 347 348 349 349 348 348 348 349 348 349 351 351 351 350 348 348
352 350 349 349 350 350 350 350 351 353 354 354 354 353 353 353 353 353 352 352 352 352 353 355 356 356 355 353 354 356 356 354 350 348 348 346 343 344 347 345 344 344 345 346 347 350 351 350 350 350 351 350 348 347 347 346 346 348 348 348 348 347 346
350 351 350 350 350 349 349 350 351 351 351 352 352 351 352 353 353 353 354 354 354 354 354 354 354 354 353 354 354 354 353 353 352 350 348 345 343 344 345 344 343 343 345 344 345 350 353 351 350 350 350 351 349 348 348 347 347 346 346 346 346 346 345
349 350 350 349 349 349 348 348 349 349 348 348 349 350 351 351 351 352 353 353 354 354 354 354 354 353 352 352 352 353 350 349 352 353 350 347 345 344 344 345 345 345 345 344 345 349 350 349 349 349 348 350 350 347 346 347 348 347 347 347 346 346 345
348 348 348 348 347 347 347 347 347 347 346 346 348 348 348 348 348 348 349 351 352 353 353 353 353 352 352 351 352 352 350 347 349 352 351 350 349 347 345 346 347 347 347 348 350 351 349 347 348 347 346 348 349 347 345 346 348 348 348 347 347 346 344
346 346 346 346 346 346 345 346 346 346 345 346 346 346 346 346 346 346 347 348 349 350 351 352 352 352 352 352 352 352 351 349 348 350 351 351 351 349 348 348 348 348 348 349 351 351 349 347 347 347 348 347 346 346 346 347 349 349 348 347 346 346 345
344 344 345 345 345 345 345 345 345 344 344 344 345 345 345 344 344 345 346 346 347 348 348 349 351 351 352 352 351 351 352 351 349 349 349 349 349 348 348 348 347 347 347 348 348 348 347 346 346 349 350 348 346 346 346 347 349 349 347 345 345 346 347
342 343 343 343 343 343 343 343 343 343 343 343 343 344 344 344 344 345 346 346 346 347 347 347 349 349 349 349 349 350 351 350 350 351 350 349 349 348 347 348 348 347 348 348 348 347 347 346 346 348 349 349 349 349 348 348 349 348 345 344 345 347 349
340 340 341 341 341 342 341 341 341 341 341 341 342 343 343 344 344 344 344 345 345 345 345 345 346 347 347 347 348 349 349 349 350 351 350 349 349 349 348 349 349 349 349 348 347 347 347 347 347 347 347 349 350 349 348 349 349 348 346 346 346 348 349
338 338 338 339 339 339 338 338 338 338 338 339 340 341 342 343 343 342 342 342 342 342 343 344 344 344 345 345 346 346 346 346 347 347 347 347 348 348 348 347 347 347 347 346 347 347 346 346 347 347 347 347 347 346 347 348 348 347 347 347 347 347 347
336 336 336 337 336 336 335 335 334 335 335 336 337 338 339 340 340 340 339 339 339 339 340 341 342 343 343 343 343 343 343 342 343 343 344 344 345 345 345 344 344 344 344 343 343 343 343 343 343 343 343 343 342 343 344 344 344 346 345 344 343 343 344
333 334 334 334 334 333 333 332 332 332 333 334 335 336 337 337 336 336 336 336 336 337 338 337 336 337 339 340 339 339 339 339 339 340 340 340 341 341 340 339 339 339 338 339 339 340 339 339 339 339 339 338 338 340 340 338 337 339 338 337 336 336 336
332 332 333 332 332 332 331 331 331 331 330 331 332 333 335 335 334 333 333 331 330 331 332 332 331 333 334 335 336 336 335 335 335 335 334 334 334 334 333 332 331 331 330 330 330 331 331 331 332 333 333 331 331 332 332 331 330 330 329 328 328 328 327
332 331 331 331 330 330 330 330 329 328 329 329 329 331 332 332 332 332 332 331 329 328 327 328 331 331 331 331 331 331 331 331 330 330 329 329 330 330 330 330 330 329 329 327 326 326 325 323 323 323 323 323 323 323 323 323 322 323 322 322 323 323 321
331 330 330 330 330 329 329 328 327 327 327 327 328 328 329 329 330 330 330 330 331 331 329 329 329 329 329 329 329 328 328 327 327 327 326 325 326 327 328 329 331 331 331 330 331 331 330 327 325 324 324 323 321 322 323 322 321 321 321 320 319 317 316
331 330 330 330 329 329 328 328 327 327 327 327 327 326 327 327 327 328 328 329 330 330 330 330 329 327 327 328 328 328 329 327 327 328 326 323 323 322 322 324 326 326 326 328 330 332 332 331 330 329 329 328 326 326 326 325 323 320 318 317 315 313 313
331 330 329 329 329 328 327 326 326 326 325 325 325 326 326 326 325 326 328 329 329 328 328 329 329 328 327 327 327 327 327 327 328 328 326 325 324 321 320 320 320 319 320 322 327 330 330 330 330 329 329 329 328 327 327 326 322 318 314 313 313 312 312
330 329 328 328 328 327 325 323 323 323 323 322 323 324 324 324 324 325 326 327 328 328 328 328 328 327 327 327 326 326 326 326 327 326 325 325 324 323 323 321 318 318 319 320 324 328 329 329 329 328 327 327 327 327 327 326 324 320 315 313 313 313 312
329 329 328 327 326 326 323 318 315 315 316 317 317 319 321 324 325 324 324 325 326 328 328 328 328 327 327 326 325 325 326 326 325 324 325 324 323 323 323 320 316 317 319 319 320 323 325 327 328 327 326 326 326 327 326 326 325 324 319 314 312 311 311
329 327 327 326 325 324 320 316 313 312 312 312 313 314 317 321 323 324 324 324 325 326 327 328 327 327 327 326 325 325 326 326 324 324 324 324 322 321 321 319 317 316 317 317 317 318 320 325 327 326 326 326 325 325 325 325 324 323 319 313 311 310 310

ECMWFFLT1_850_thetae_141.txt.gz
Theta_e
347 346 347 347 347 346 347 347 347 348 348 349 350 350 352 353 353 351 347 344 344 345 346 346 344 344 346 346 346 347 347 347 348 347 347 347 346 344 344 345 344 344 344 345 346 346 346 346 347 346 345 346 346 344 344 344 346 347 350 352 349 344 344
346 347 346 346 347 346 346 346 347 347 347 349 349 350 351 352 353 352 348 346 345 346 346 345 344 345 346 346 346 347 347 347 347 347 347 348 347 345 343 345 345 343 343 344 345 347 348 348 350 349 346 345 345 343 342 342 343 343 345 348 347 344 346
348 347 345 346 345 345 345 345 347 347 347 348 350 350 351 352 352 351 349 347 346 347 347 346 345 345 346 346 346 346 346 346 346 347 347 347 347 346 345 346 347 346 347 347 345 348 351 351 351 351 348 345 342 341 341 340 339 340 340 342 343 343 345
349 347 345 345 345 344 345 345 346 347 347 347 349 349 351 351 351 351 351 348 345 346 347 346 345 345 346 347 347 347 346 346 346 346 346 346 346 347 346 348 351 350 351 352 349 349 351 351 352 351 349 346 341 339 341 341 339 339 339 339 340 341 344
350 348 345 345 345 344 345 345 346 347 348 347 348 349 351 351 350 351 352 351 346 344 346 347 345 345 346 347 347 348 347 346 347 347 346 346 346 348 348 349 351 350 352 354 353 351 352 351 351 350 349 347 346 346 343 340 340 340 339 340 340 341 342
350 349 347 344 344 345 345 345 346 346 348 348 348 349 350 350 351 350 351 352 349 343 344 346 346 345 345 346 346 347 347 347 347 346 347 347 347 349 350 350 351 350 352 354 353 353 353 353 350 347 345 345 349 351 347 341 340 340 338 340 340 340 344
350 350 348 344 343 344 345 345 345 346 347 348 348 350 350 350 350 351 350 352 351 346 342 345 346 345 345 345 346 346 346 347 348 348 349 351 350 350 351 351 352 352 353 353 353 353 353 353 351 346 343 343 345 347 346 343 341 340 339 340 339 339 343
350 350 347 345 343 344 345 345 344 346 347 348 348 349 351 351 351 352 352 352 353 351 344 341 345 346 345 345 346 345 345 345 347 350 353 354 353 352 352 352 352 354 355 354 353 354 352 351 351 349 345 343 341 342 347 348 346 344 343 342 340 339 341
351 350 347 346 344 344 346 345 344 345 346 348 348 349 350 350 351 351 352 353 354 355 350 344 345 347 345 345 345 345 345 345 346 349 353 355 354 353 354 354 353 353 354 354 354 353 353 352 351 352 351 347 345 347 351 353 351 350 350 347 344 342 341
352 351 349 347 345 345 346 345 345 345 346 347 348 349 350 349 350 350 352 353 353 354 353 350 351 350 347 346 346 347 348 347 345 347 352 356 355 354 355 355 355 354 353 354 354 353 354 353 352 353 354 351 350 350 351 353 353 352 352 351 349 347 345
352 350 348 346 345 347 346 345 346 344 344 347 348 348 349 348 350 350 350 352 351 351 353 352 352 352 349 347 348 351 352 348 346 347 349 354 357 355 355 355 355 354 353 354 354 353 354 355 354 353 354 352 351 350 350 351 352 352 351 350 349 348 349
353 352 351 349 346 347 347 345 346 344 344 346 347 348 348 348 349 349 349 350 349 349 349 350 352 351 349 347 346 349 350 348 349 351 350 351 355 355 355 355 355 354 353 353 354 353 353 353 354 354 354 353 352 350 349 348 349 349 348 348 349 349 350
352 351 350 351 350 349 347 345 346 345 344 346 346 348 348 347 347 347 347 348 349 348 347 348 350 349 349 348 346 346 347 348 349 352 353 352 353 355 355 355 355 353 352 353 354 354 354 353 353 354 354 354 352 349 347 347 346 346 347 348 349 350 351
353 351 348 349 351 352 349 346 346 345 345 345 346 347 346 346 346 346 345 346 347 348 347 347 349 348 347 348 347 346 348 350 349 351 352 352 352 353 353 353 353 353 352 353 353 352 353 353 353 353 354 354 352 350 349 348 348 346 346 347 349 350 351
352 351 349 347 351 353 351 348 348 347 347 346 344 346 347 345 345 346 345 346 346 347 346 346 348 348 347 347 348 347 348 350 351 349 350 351 350 350 351 350 350 349 350 350 349 349 351 353 353 353 353 353 353 352 351 350 351 350 348 348 349 349 349
351 351 350 349 350 352 352 351 349 347 347 350 348 346 347 347 346 346 345 346 346 346 347 347 347 347 347 347 347 347 348 349 350 350 349 349 349 348 348 348 348 346 346 346 346 346 348 350 352 352 353 353 352 352 352 352 352 352 351 350 349 347 347
350 350 351 350 351 351 352 352 350 346 347 351 352 350 347 348 349 350 349 347 347 347 347 347 347 347 348 349 348 348 349 349 349 350 349 348 349 348 346 345 346 346 347 346 344 345 345 347 348 349 350 349 350 351 352 352 351 350 351 351 350 349 349
348 348 349 351 352 352 352 351 351 350 347 348 353 355 351 348 349 351 352 350 349 348 347 348 350 350 351 350 350 349 349 350 350 349 349 349 349 349 347 345 344 346 348 348 346 344 345 347 348 348 348 348 350 351 351 351 351 351 351 351 351 351 350
346 346 347 349 350 352 353 352 352 353 352 349 352 356 355 351 348 348 349 351 354 356 354 351 349 349 349 348 348 349 350 350 349 348 348 349 348 348 347 346 344 344 347 348 347 346 347 347 348 348 348 349 350 350 350 350 351 351 350 350 351 352 351
346 346 345 346 348 349 350 349 349 352 353 354 354 355 355 354 352 349 347 350 356 359 358 355 351 349 349 348 346 347 348 349 348 348 349 349 348 348 348 347 345 344 344 346 348 348 347 347 346 347 347 348 348 348 348 349 350 350 349 350 351 351 351
346 346 345 346 347 348 348 347 347 349 351 353 354 354 354 353 353 352 351 351 354 355 356 355 354 354 354 351 349 347 347 348 348 348 349 349 347 346 347 347 346 345 344 344 346 347 347 346 345 346 346 347 347 348 348 348 348 347 347 347 348 349 349
345 345 344 346 347 347 347 346 346 347 348 350 352 352 352 351 351 351 352 353 354 355 354 353 353 354 354 353 352 350 349 350 350 349 350 349 347 345 344 346 347 347 345 344 344 346 347 346 346 346 345 346 347 349 349 348 347 347 346 346 345 346 347
345 344 345 345 345 345 345 344 344 345 346 347 349 350 350 351 351 351 352 352 353 353 354 353 354 354 352 350 351 351 350 351 350 349 350 351 348 344 343 346 348 347 345 343 344 346 347 347 347 347 345 344 346 348 350 349 349 347 347 347 346 346 346
344 344 344 344 344 344 344 344 344 344 345 346 347 346 346 347 348 349 350 350 352 352 353 353 353 354 352 351 351 352 351 350 348 347 349 352 351 347 346 347 347 346 344 343 343 344 346 347 347 346 344 342 344 348 349 349 349 348 346 346 347 348 347
343 343 343 343 344 343 343 343 343 343 344 345 345 345 346 345 346 346 347 348 349 350 350 350 351 352 352 351 351 352 351 350 349 348 350 353 353 352 352 351 350 348 346 344 343 343 344 346 346 345 343 341 344 347 347 346 347 347 346 345 345 347 348
341 342 342 341 342 342 341 342 342 343 343 343 344 345 344 344 345 345 346 346 347 347 347 348 348 349 349 350 350 351 351 351 349 348 350 352 353 353 354 353 353 350 348 346 347 347 347 348 347 347 346 346 348 349 349 348 348 348 347 345 344 346 348
340 340 340 339 339 339 339 339 340 341 340 341 342 343 343 343 344 345 345 345 345 345 345 345 346 347 348 348 348 349 351 351 351 349 349 349 350 351 352 352 351 350 349 349 349 348 348 349 350 349 349 349 350 351 350 350 350 349 348 346 346 347 347
338 337 337 337 337 337 337 337 338 338 338 338 339 341 342 343 343 343 343 343 343 344 344 344 345 345 346 347 347 347 348 349 350 350 350 349 349 350 351 350 350 350 349 349 348 347 347 348 349 348 347 347 348 349 349 349 348 348 347 348 348 348 346
336 335 334 335 335 335 336 336 336 336 337 337 338 340 340 341 341 341 341 341 341 342 343 343 344 344 345 345 345 345 346 347 348 348 348 349 350 349 349 348 348 349 349 349 348 348 347 348 347 346 346 346 346 346 345 345 345 345 346 346 347 347 346
334 333 333 333 334 334 334 334 334 335 336 337 337 337 336 337 337 337 338 338 338 338 339 341 342 343 343 343 343 343 343 344 345 345 344 345 345 345 344 345 344 345 346 346 347 347 346 346 345 345 345 344 342 342 341 339 339 341 341 341 343 345 345
332 332 332 332 332 332 332 332 332 332 334 335 334 333 332 332 332 331 332 333 332 333 334 335 337 339 339 338 339 339 338 338 339 339 339 339 337 337 339 341 342 342 343 343 344 345 344 343 343 342 342 340 338 338 336 333 333 335 336 336 337 339 341
332 332 332 331 331 330 330 330 329 330 331 332 333 332 332 331 330 329 329 329 330 331 332 331 331 332 332 333 334 334 335 335 335 335 335 334 332 331 332 333 334 335 335 336 337 338 339 339 338 337 337 335 332 331 330 328 328 328 330 331 332 333 336
332 332 331 330 330 329 329 329 328 329 329 329 330 331 330 330 330 330 330 329 330 331 330 328 327 327 327 328 328 329 330 331 332 333 333 333 331 330 329 329 330 329 329 329 329 329 329 328 328 327 327 327 326 324 324 323 323 322 323 324 324 325 326
330 330 330 329 329 328 327 326 326 327 327 327 327 328 328 328 329 330 330 330 330 330 329 328 327 328 329 328 327 326 326 326 327 329 329 329 331 331 331 331 331 331 331 331 330 328 327 326 326 325 324 322 322 322 322 322 321 321 320 319 318 317 317
330 330 330 329 328 327 327 326 325 325 326 327 326 326 327 327 328 330 329 329 330 330 329 328 328 328 329 329 328 328 328 327 326 325 324 324 326 327 329 331 330 330 332 333 332 331 330 329 328 328 327 324 323 323 323 322 319 316 316 315 314 314 313
330 330 329 329 329 328 327 327 325 324 325 326 326 326 326 325 327 329 328 327 328 328 328 327 327 327 327 327 327 328 329 328 327 325 324 322 321 321 323 323 322 324 328 329 329 329 330 329 329 329 328 327 326 326 326 324 320 317 316 315 312 312 312
330 330 329 329 328 328 327 327 325 323 323 325 326 325 325 325 325 327 328 327 327 327 327 327 327 326 326 326 326 327 327 327 326 325 324 323 322 321 321 320 319 321 324 325 326 327 328 328 328 328 328 328 327 327 327 326 324 323 322 318 314 311 311
329 329 329 328 328 328 326 325 323 320 320 322 324 324 324 324 324 324 327 327 327 326 327 327 327 326 326 326 326 326 325 325 324 324 324 323 322 321 320 318 318 321 322 323 324 326 327 327 326 326 326 326 326 326 326 326 325 325 324 320 314 311 310

ECMWFFLT1_850_thetae_144.txt.gz
Theta_e
346 345 345 345 345 347 348 349 350 350 351 351 353 353 352 353 352 353 351 346 344 346 346 345 344 344 342 341 341 341 342 343 343 344 346 346 347 348 348 348 347 344 343 343 342 342 342 343 343 343 344 344 344 345 345 344 343 343 343 343 341 340 341
347 346 345 346 346 347 348 349 349 351 351 352 352 352 352 353 352 352 350 346 342 343 345 345 345 344 342 343 342 340 341 342 343 345 347 346 346 347 348 347 346 344 344 343 342 342 343 343 344 343 345 345 345 345 345 345 345 347 348 346 343 341 342
347 347 346 346 346 347 348 349 349 350 350 351 351 351 352 352 352 352 350 346 343 343 344 344 344 344 344 345 345 342 342 342 343 345 346 345 345 347 347 346 345 344 344 344 344 344 343 344 344 344 344 345 344 344 345 345 345 346 348 349 346 342 343
348 348 346 346 347 346 347 349 349 349 349 349 349 350 351 352 352 351 350 348 344 342 344 344 344 343 344 346 346 345 344 344 344 345 345 344 345 346 345 344 344 344 343 344 345 346 346 345 346 347 346 345 344 343 343 343 342 343 344 347 346 344 345
348 349 347 346 347 347 347 348 348 348 348 348 348 349 349 351 351 350 351 350 346 343 343 344 345 344 343 344 345 345 346 346 345 345 345 344 345 345 344 343 344 345 345 345 346 347 348 348 348 349 348 346 344 342 342 341 341 341 340 341 342 343 345
350 349 347 346 346 347 347 347 348 347 348 347 348 349 349 349 350 350 351 351 348 344 344 345 345 344 343 344 345 346 346 346 346 345 345 345 344 345 344 343 345 346 347 349 350 349 349 349 348 348 348 347 344 342 341 341 341 340 339 339 339 340 343
351 350 348 346 346 347 347 347 348 347 347 347 347 349 349 348 349 349 350 351 349 346 345 345 345 344 344 345 345 346 346 346 346 345 345 346 345 345 345 345 346 348 348 349 352 352 351 350 350 349 348 347 346 343 341 341 341 340 339 340 340 339 343
351 351 349 347 345 346 347 346 347 347 347 347 347 348 348 348 349 350 350 350 350 349 346 345 345 344 344 345 345 346 346 346 346 346 346 346 345 345 347 346 347 350 350 349 351 352 352 352 351 350 349 347 346 344 342 342 342 341 339 339 340 340 341
351 350 348 347 346 345 346 346 346 347 347 348 348 348 348 349 349 350 350 350 350 351 348 344 344 345 344 344 345 346 347 347 347 347 347 346 346 346 347 348 349 351 351 351 352 352 351 351 351 351 351 349 345 342 341 343 346 345 342 340 341 340 339
350 348 346 346 345 345 346 346 346 346 346 348 348 348 349 348 349 350 350 350 350 350 350 346 344 344 344 344 345 345 346 347 347 347 347 347 348 349 349 349 351 352 352 353 354 353 352 352 351 351 351 348 344 341 340 344 348 350 347 343 343 342 341
350 349 348 347 345 345 345 345 346 346 346 348 348 347 348 348 349 350 350 350 350 349 350 349 345 343 344 345 345 345 346 346 346 347 348 349 350 352 352 351 352 352 353 354 354 353 352 353 352 352 351 349 345 342 343 347 350 352 351 348 346 346 346
351 349 349 349 346 345 346 345 346 347 347 347 347 347 348 348 349 349 349 350 350 349 351 350 345 341 342 345 345 345 345 345 345 345 347 349 351 353 353 353 354 353 352 353 353 354 353 353 353 353 351 350 349 346 348 350 351 352 352 351 350 348 347
352 351 350 349 347 346 347 346 345 347 348 347 347 347 348 348 349 350 350 349 350 349 350 349 345 340 339 342 345 346 345 345 344 345 346 347 350 353 354 354 354 354 353 353 353 354 354 353 353 354 353 352 353 351 351 351 351 351 352 352 352 350 349
349 350 349 349 347 346 348 347 345 346 347 347 348 348 348 349 349 349 350 349 349 350 350 349 346 343 341 341 343 346 345 345 346 345 345 346 348 351 354 354 354 354 354 354 353 353 354 353 353 353 353 354 354 353 353 352 351 351 351 351 351 351 352
348 348 347 348 350 350 350 349 345 344 345 346 348 349 349 350 349 349 349 349 349 349 349 349 348 346 345 344 344 345 344 343 344 345 345 347 348 351 354 355 354 354 354 354 353 353 353 353 353 353 353 353 353 354 353 353 351 350 350 348 348 351 352
349 350 348 347 349 352 351 349 347 346 345 344 345 348 349 349 349 349 349 349 350 349 349 349 348 347 346 346 346 346 346 345 344 344 346 348 349 351 353 354 353 354 353 352 352 352 352 352 353 353 353 353 353 353 354 353 352 351 351 349 349 351 352
347 349 349 348 348 350 351 349 348 349 350 348 347 347 347 347 348 348 349 349 350 351 350 349 348 347 346 346 346 347 348 347 345 346 347 347 349 350 351 352 352 352 351 349 348 349 350 351 352 352 353 352 352 353 354 353 351 350 350 351 351 351 351
346 347 347 347 348 348 349 350 349 348 349 351 352 351 349 349 348 347 347 348 347 349 350 350 348 347 347 347 348 348 348 348 347 348 348 348 349 350 349 350 350 350 350 349 347 347 347 348 349 351 352 352 352 352 352 351 351 350 350 350 351 351 351
346 346 346 346 347 346 346 348 349 349 347 348 351 352 353 353 351 348 346 346 346 346 349 350 349 347 347 348 348 348 348 348 348 348 348 349 349 349 349 349 348 348 348 347 347 347 347 346 347 349 351 352 351 350 350 349 350 350 350 350 351 351 351
345 345 346 345 346 346 346 346 348 349 348 347 347 347 351 354 353 351 348 345 343 345 348 351 350 348 348 348 348 348 348 348 348 348 348 348 349 349 349 349 349 348 347 346 346 346 347 347 347 347 349 350 349 349 349 349 350 349 349 350 351 350 351
344 345 345 345 346 346 347 346 346 347 348 348 347 346 350 353 354 354 353 349 345 345 348 349 349 348 348 347 348 349 348 348 348 348 348 348 349 349 349 349 349 348 347 346 345 345 345 347 347 346 347 348 349 349 348 348 349 348 348 349 350 350 350
344 344 345 346 346 345 345 345 344 345 346 347 347 349 351 352 353 354 354 353 351 349 348 347 347 348 348 348 349 350 350 349 349 349 349 349 349 350 350 350 349 349 348 347 346 345 345 345 346 346 346 347 347 347 348 348 347 346 346 348 348 348 349
344 344 344 344 344 344 344 344 344 344 344 345 347 348 348 349 351 352 353 353 354 353 351 350 349 348 346 347 349 349 349 350 350 350 350 350 351 351 350 350 350 349 349 349 348 347 346 346 347 347 347 347 347 347 347 347 347 346 346 347 347 346 346
343 343 343 343 343 343 344 344 343 343 344 344 345 346 346 346 346 349 350 350 351 352 352 353 353 351 349 348 348 348 348 348 348 350 351 352 352 351 349 349 349 349 348 349 349 349 348 348 348 348 348 348 347 347 347 347 347 348 348 348 347 347 346
342 342 342 342 342 343 343 343 344 343 344 344 344 345 344 343 342 344 346 347 347 348 349 351 352 352 352 352 350 350 350 349 348 349 352 354 353 350 346 345 346 346 346 347 348 349 349 349 348 348 348 348 349 348 348 347 346 346 347 349 349 348 347
340 340 340 340 341 342 342 343 343 343 344 344 344 343 342 341 341 341 343 344 345 345 345 346 349 351 352 352 351 350 350 349 348 349 352 353 352 349 347 347 347 347 347 345 345 347 349 349 347 346 344 345 348 348 348 347 346 343 341 343 347 349 348
338 338 338 339 339 340 341 342 342 342 341 342 342 342 342 341 341 341 342 343 343 342 341 342 345 347 349 350 350 350 351 350 350 350 351 352 351 350 349 349 351 352 350 347 344 344 346 347 346 345 343 343 344 346 346 346 344 342 339 339 344 347 347
338 338 337 337 337 338 338 339 339 339 339 339 340 340 341 341 341 342 343 341 340 339 338 339 342 345 346 348 348 349 349 350 349 349 350 350 351 350 349 350 351 352 352 350 348 347 348 347 347 346 345 344 344 345 346 346 345 345 344 343 346 347 347
337 337 337 337 336 336 336 336 336 337 337 338 339 340 340 340 341 341 342 340 340 339 339 339 342 343 344 345 346 347 347 348 347 348 349 349 350 350 349 350 350 351 352 351 351 351 351 350 349 349 349 347 347 348 348 348 348 348 347 347 348 348 348
335 336 336 335 335 334 334 334 333 334 336 337 337 337 338 339 340 340 340 340 340 341 340 340 341 341 340 341 343 345 345 346 346 346 346 347 348 348 348 348 349 350 351 350 350 351 351 350 350 349 349 348 348 349 348 347 347 346 345 345 346 346 347
333 334 334 333 333 332 332 332 333 334 335 335 334 333 334 335 337 337 336 337 337 339 340 340 340 341 340 341 342 343 344 344 344 344 344 345 345 345 346 347 349 348 348 348 348 347 348 349 348 347 346 345 345 346 345 344 343 342 342 343 343 344 344
332 332 332 331 331 330 330 331 331 333 334 333 332 331 330 330 331 332 332 332 333 335 336 337 338 339 338 339 341 342 343 342 340 340 340 342 343 342 343 344 345 344 342 342 341 340 341 344 344 342 341 342 341 341 341 341 340 338 338 339 340 341 341
331 331 330 329 329 329 329 329 330 331 332 332 332 331 330 329 329 330 331 330 330 329 329 330 332 333 333 334 336 338 339 339 337 336 336 336 338 339 340 340 341 340 340 339 338 337 337 338 337 336 336 337 337 337 337 336 335 333 332 334 334 335 336
330 330 329 329 328 328 328 328 328 329 331 331 330 330 330 330 330 331 332 331 330 329 328 327 328 329 328 329 330 331 332 332 332 333 332 332 332 333 335 335 335 335 335 333 333 332 330 330 330 330 330 330 330 331 330 328 327 326 325 326 326 326 326
330 330 329 329 328 328 327 327 327 327 328 329 328 328 329 330 330 331 331 330 329 329 329 328 328 328 327 326 326 326 326 326 326 326 327 328 330 330 331 331 330 330 330 328 327 327 326 326 326 326 325 324 323 324 323 322 321 320 318 317 317 316 316
330 330 330 329 329 328 327 326 326 326 326 327 327 327 328 330 330 331 331 330 329 328 328 329 329 328 327 327 326 326 326 325 325 323 323 324 326 328 329 330 330 330 330 330 330 330 328 328 328 327 326 325 324 324 323 320 317 317 316 314 313 312 311
330 330 330 329 328 328 327 327 326 326 325 325 326 326 326 327 328 330 330 329 328 327 327 328 330 329 328 327 327 327 327 326 326 324 323 323 323 323 325 327 328 329 331 331 329 328 326 326 328 328 326 324 324 326 325 323 321 321 322 319 315 311 310
330 330 330 329 328 328 327 327 326 326 325 324 325 325 325 325 326 327 329 329 328 327 327 327 328 328 327 326 326 327 327 326 325 324 324 323 322 321 321 321 320 322 326 328 326 324 323 324 327 328 327 325 325 326 327 326 325 325 325 323 317 311 310